Weather History for Asheville, NC

Change the Weather History Date:

Thursday, January 12, 2012

  Actual Average Record
Temperature  
Mean Temperature 41 °F 37 °F  
Max Temperature 55 °F 47 °F 70 °F (1898)
Min Temperature 26 °F 26 °F -1 °F (1918)
Degree Days  
Heating Degree Days 24 28  
Month to date heating degree days 291 336  
Since 1 July heating degree days 1765 1997  
Cooling Degree Days 0 0  
Month to date cooling degree days 0 0  
Year to date cooling degree days 0 0  
Moisture  
Dew Point 36 °F    
Average Humidity 77    
Maximum Humidity 100    
Minimum Humidity 53    
Precipitation  
Precipitation 0.02 in 0.12 in 2.32 in (1879)
Month to date precipitation 1.86 1.36  
Year to date precipitation 1.86 1.36  
Snow  
Snow 0.00 in 0.10 in 2.50 in (1893)
Month to date snowfall T 1.4  
Since 1 July snowfall T 2.4  
Snow Depth 0.00 in    
Sea Level Pressure  
Sea Level Pressure 29.61 in    
Wind  
Wind Speed 8 mph (WSW)    
Max Wind Speed 24 mph    
Max Gust Speed 45 mph    
Visibility 5 miles    
Events Fog , Rain    
T = Trace of Precipitation, MM = Missing Value Source: NWS Daily Summary

Daily Weather History Graph

Daily Weather History Graph

Search for Another Location

Airport:

Trip Planner

Search our weather history database for the weather conditions in past years. The results will help you decide how hot, cold, wet, or windy it might be!

Date:

Astronomy

Jan. 12, 2012 Rise Set
Actual Time 7:39 AM EST 5:37 PM EST
Civil Twilight 7:11 AM EST 6:05 PM EST
Nautical Twilight 6:40 AM EST 6:36 PM EST
Astronomical Twilight 6:09 AM EST 7:07 PM EST
Moon 9:31 PM EST (1/12) 9:31 AM EST (1/12)
Length of Visible Light 10h 53m
Length of Day
9h 58m
Waning Gibbous, 87% of the Moon is Illuminated
Jan 12
Waning Gibbous
Jan 16
Last Quarter
Jan 23
New
Jan 30
First Quarter
Feb 7
Full

Hourly Weather History & Observations

Time (EST) Temp. Windchill Dew Point Humidity Pressure Visibility Wind Dir Wind Speed Gust Speed Precip Events Conditions
12:54 AM 39.9 °F - 37.9 °F 93% 29.58 in 10.0 mi Calm Calm - N/A   Clear
1:49 AM 39.2 °F - 37.4 °F 93% 29.60 in 10.0 mi Calm Calm - N/A   Partly Cloudy
1:54 AM 39.0 °F - 37.9 °F 96% 29.59 in 9.0 mi Calm Calm - N/A   Scattered Clouds
2:02 AM 39.2 °F - 37.4 °F 93% 29.60 in 7.0 mi Calm Calm - N/A   Mostly Cloudy
2:21 AM 37.4 °F - 37.4 °F 100% 29.60 in 7.0 mi Calm Calm - N/A   Scattered Clouds
2:42 AM 37.4 °F 33.8 °F 37.4 °F 100% 29.61 in 1.5 mi NNW 4.6 mph - N/A   Partly Cloudy
2:44 AM 35.6 °F 32.8 °F 35.6 °F 100% 29.61 in 1.0 mi NNW 3.5 mph - N/A   Mist
2:52 AM 35.6 °F - 35.6 °F 100% 29.60 in 0.5 mi Calm Calm - N/A Fog Fog
2:54 AM 37.0 °F - 36.0 °F 96% 29.59 in 0.5 mi Calm Calm - N/A Fog Fog
3:00 AM 37.4 °F - 37.4 °F 100% 29.61 in 1.5 mi Calm Calm - N/A   Scattered Clouds
3:04 AM 37.4 °F - 37.4 °F 100% 29.61 in 3.0 mi Calm Calm - N/A   Scattered Clouds
3:42 AM 35.6 °F 30.7 °F 35.6 °F 100% 29.61 in 1.0 mi NW 5.8 mph - N/A   Mist
3:48 AM 35.6 °F 32.8 °F 35.6 °F 100% 29.61 in 0.2 mi SW 3.5 mph - N/A Fog Fog
3:49 AM 35.1 °F - 35.1 °F 100% 29.60 in 0.2 mi Calm Calm - N/A Fog Fog
3:56 AM 35.6 °F - 35.6 °F 100% 29.61 in 0.5 mi Calm Calm - N/A Fog Fog
4:06 AM 35.6 °F - 35.6 °F 100% 29.61 in 0.5 mi Calm Calm - N/A Fog Fog
4:13 AM 35.6 °F 31.7 °F 35.6 °F 100% 29.61 in 0.2 mi North 4.6 mph - N/A Fog Fog
4:23 AM 37.4 °F 34.9 °F 35.6 °F 93% 29.61 in 0.5 mi NNW 3.5 mph - N/A Fog Fog
4:25 AM 35.6 °F 31.7 °F 35.6 °F 100% 29.61 in 0.2 mi NNW 4.6 mph - N/A Fog Fog
4:39 AM 35.6 °F 32.8 °F 35.6 °F 100% 29.61 in 0.5 mi North 3.5 mph - N/A Fog Fog
4:54 AM 35.1 °F 32.2 °F 35.1 °F 100% 29.61 in 0.5 mi SSW 3.5 mph - N/A Fog Fog
5:19 AM 35.6 °F - 35.6 °F 100% 29.62 in 1.5 mi Calm Calm - N/A   Mostly Cloudy
5:22 AM 35.6 °F - 35.6 °F 100% 29.62 in 4.0 mi Calm Calm - N/A   Mostly Cloudy
5:35 AM 35.6 °F 32.8 °F 33.8 °F 93% 29.62 in 3.0 mi NNW 3.5 mph - N/A   Scattered Clouds
5:54 AM 36.0 °F - 36.0 °F 100% 29.60 in 10.0 mi Calm Calm - N/A   Partly Cloudy
6:08 AM 35.6 °F 30.7 °F 35.6 °F 100% 29.61 in 1.5 mi South 5.8 mph - N/A   Partly Cloudy
6:10 AM 33.8 °F 30.8 °F 33.8 °F 100% 29.61 in 1.0 mi South 3.5 mph - N/A   Mist
6:17 AM 33.8 °F - 33.8 °F 100% 29.61 in 0.5 mi Calm Calm - N/A Fog Fog
6:42 AM 33.8 °F - 33.8 °F 100% 29.62 in 0.2 mi Calm Calm - N/A Fog Fog
6:51 AM 33.8 °F - 33.8 °F 100% 29.63 in 0.8 mi Calm Calm - N/A   Mist
6:54 AM 34.0 °F 31.0 °F 33.1 °F 96% 29.64 in 1.0 mi South 3.5 mph - N/A   Mist
7:01 AM 33.8 °F - 33.8 °F 100% 29.65 in 0.8 mi Calm Calm - N/A   Overcast
7:08 AM 33.8 °F - 33.8 °F 100% 29.65 in 1.0 mi Calm Calm - N/A   Overcast
7:16 AM 33.8 °F - 33.8 °F 100% 29.65 in 2.0 mi Calm Calm - N/A   Mostly Cloudy
7:25 AM 35.6 °F - 33.8 °F 93% 29.65 in 6.0 mi Calm Calm - N/A   Scattered Clouds
7:54 AM 37.0 °F - 37.0 °F 100% 29.64 in 10.0 mi Calm Calm - N/A   Clear
8:01 AM 35.6 °F 32.8 °F 35.6 °F 100% 29.65 in 1.5 mi WSW 3.5 mph - N/A   Clear
8:04 AM 33.8 °F 30.8 °F 33.8 °F 100% 29.65 in 0.8 mi WSW 3.5 mph - N/A   Clear
8:13 AM 33.8 °F - 33.8 °F 100% 29.65 in 0.5 mi Calm Calm - N/A Fog Fog
8:30 AM 35.6 °F - 33.8 °F 93% 29.65 in 1.8 mi Calm Calm - N/A   Mostly Cloudy
8:37 AM 35.6 °F 32.8 °F 35.6 °F 100% 29.64 in 1.0 mi South 3.5 mph - N/A   Overcast
8:47 AM 35.6 °F - 35.6 °F 100% 29.64 in 3.0 mi Calm Calm - N/A   Overcast
8:54 AM 37.0 °F - 37.0 °F 100% 29.64 in 6.0 mi Calm Calm - N/A   Overcast
9:10 AM 37.4 °F - 37.4 °F 100% 29.64 in 5.0 mi Calm Calm - N/A   Clear
9:54 AM 42.1 °F 40.2 °F 41.0 °F 96% 29.64 in 10.0 mi South 3.5 mph - N/A   Clear
10:54 AM 48.9 °F - 42.1 °F 77% 29.62 in 10.0 mi SSW 8.1 mph - N/A   Scattered Clouds
11:54 AM 51.1 °F - 43.0 °F 74% 29.60 in 10.0 mi SW 8.1 mph - N/A   Clear
12:54 PM 53.1 °F - 42.1 °F 66% 29.55 in 10.0 mi South 10.4 mph - N/A   Clear
1:54 PM 54.0 °F - 42.1 °F 64% 29.53 in 10.0 mi SSW 16.1 mph 25.3 mph N/A   Scattered Clouds
2:54 PM 53.1 °F - 41.0 °F 64% 29.53 in 10.0 mi SSW 17.3 mph 26.5 mph N/A   Mostly Cloudy
3:54 PM 50.0 °F - 39.0 °F 66% 29.54 in 10.0 mi South 12.7 mph 23.0 mph 0.00 in   Overcast
4:10 PM 50.0 °F - 39.2 °F 66% 29.55 in 10.0 mi SSW 13.8 mph - 0.00 in Rain Light Rain
4:54 PM 46.4 °F 41.9 °F 42.8 °F 87% 29.54 in 10.0 mi South 9.2 mph - N/A   Overcast
5:54 PM 46.4 °F 44.3 °F 42.8 °F 87% 29.52 in 10.0 mi Variable 4.6 mph - N/A   Overcast
6:54 PM 46.9 °F - 43.0 °F 86% 29.53 in 10.0 mi South 16.1 mph 23.0 mph N/A   Mostly Cloudy
7:54 PM 46.0 °F 40.6 °F 37.0 °F 71% 29.53 in 10.0 mi SW 11.5 mph 21.9 mph 0.00 in Rain Light Rain
8:05 PM 44.6 °F 39.2 °F 35.6 °F 71% 29.53 in 10.0 mi WSW 10.4 mph 23.0 mph 0.00 in   Mostly Cloudy
8:54 PM 44.1 °F 38.1 °F 24.1 °F 45% 29.55 in 10.0 mi WSW 11.5 mph 23.0 mph 0.00 in   Partly Cloudy
9:54 PM 35.1 °F 25.9 °F 28.9 °F 78% 29.59 in 10.0 mi NNW 13.8 mph 20.7 mph N/A   Scattered Clouds
10:54 PM 30.0 °F 17.2 °F 16.0 °F 56% 29.65 in 10.0 mi NW 20.7 mph 29.9 mph N/A   Partly Cloudy
11:54 PM 27.0 °F 13.9 °F 10.0 °F 49% 29.71 in 10.0 mi NW 18.4 mph 33.4 mph N/A   Clear